Year,Month,Day,Hour,Minute,Value (Times are PST for temperature in C)
2012,10,15,00,00,11.20
2012,10,15,00,01,11.20
2012,10,15,00,02,11.20
2012,10,15,00,03,11.20
2012,10,15,00,04,11.20
2012,10,15,00,05,11.20
2012,10,15,00,06,11.20
2012,10,15,00,07,11.20
2012,10,15,00,08,11.20
2012,10,15,00,09,11.10
2012,10,15,00,10,11.10
2012,10,15,00,11,11.10
2012,10,15,00,12,11.10
2012,10,15,00,13,11.10
2012,10,15,00,14,11.10
2012,10,15,00,15,11.10
2012,10,15,00,16,11.10
2012,10,15,00,17,11.10
2012,10,15,00,18,11.10
2012,10,15,00,19,11.10
2012,10,15,00,20,11.10
2012,10,15,00,21,11.10
2012,10,15,00,22,11.10
2012,10,15,00,23,11.10
2012,10,15,00,24,11.00
2012,10,15,00,25,11.00
2012,10,15,00,26,11.00
2012,10,15,00,27,11.00
2012,10,15,00,28,11.00
2012,10,15,00,29,11.00
2012,10,15,00,30,11.00
2012,10,15,00,31,11.00
2012,10,15,00,32,11.00
2012,10,15,00,33,11.00
2012,10,15,00,34,11.00
2012,10,15,00,35,11.00
2012,10,15,00,36,11.00
2012,10,15,00,37,11.00
2012,10,15,00,38,11.00
2012,10,15,00,39,11.00
2012,10,15,00,40,10.90
2012,10,15,00,41,10.90
2012,10,15,00,42,10.90
2012,10,15,00,43,10.90
2012,10,15,00,44,10.90
2012,10,15,00,45,10.90
2012,10,15,00,46,10.90
2012,10,15,00,47,10.90
2012,10,15,00,48,10.90
2012,10,15,00,49,10.90
2012,10,15,00,50,10.90
2012,10,15,00,51,10.90
2012,10,15,00,52,10.90
2012,10,15,00,53,10.90
2012,10,15,00,54,10.90
2012,10,15,00,55,10.90
2012,10,15,00,56,10.90
2012,10,15,00,57,10.90
2012,10,15,00,58,10.90
2012,10,15,00,59,10.90
2012,10,15,01,00,10.90
2012,10,15,01,01,10.90
2012,10,15,01,02,10.80
2012,10,15,01,03,10.80
2012,10,15,01,04,10.80
2012,10,15,01,05,10.80
2012,10,15,01,06,10.80
2012,10,15,01,07,10.80
2012,10,15,01,08,10.80
2012,10,15,01,09,10.70
2012,10,15,01,10,10.70
2012,10,15,01,11,10.70
2012,10,15,01,12,10.70
2012,10,15,01,13,10.70
2012,10,15,01,14,10.70
2012,10,15,01,15,10.70
2012,10,15,01,16,10.70
2012,10,15,01,17,10.70
2012,10,15,01,18,10.70
2012,10,15,01,19,10.70
2012,10,15,01,20,10.70
2012,10,15,01,21,10.70
2012,10,15,01,22,10.70
2012,10,15,01,23,10.70
2012,10,15,01,24,10.70
2012,10,15,01,25,10.70
2012,10,15,01,26,10.70
2012,10,15,01,27,10.70
2012,10,15,01,28,10.70
2012,10,15,01,29,10.70
2012,10,15,01,30,10.70
2012,10,15,01,31,10.70
2012,10,15,01,32,10.70
2012,10,15,01,33,10.70
2012,10,15,01,34,10.70
2012,10,15,01,35,10.70
2012,10,15,01,36,10.70
2012,10,15,01,37,10.70
2012,10,15,01,38,10.60
2012,10,15,01,39,10.60
2012,10,15,01,40,10.60
2012,10,15,01,41,10.60
2012,10,15,01,42,10.60
2012,10,15,01,43,10.50
2012,10,15,01,44,10.50
2012,10,15,01,45,10.50
2012,10,15,01,46,10.40
2012,10,15,01,47,10.40
2012,10,15,01,48,10.40
2012,10,15,01,49,10.40
2012,10,15,01,50,10.40
2012,10,15,01,51,10.30
2012,10,15,01,52,10.30
2012,10,15,01,53,10.30
2012,10,15,01,54,10.30
2012,10,15,01,55,10.30
2012,10,15,01,56,10.30
2012,10,15,01,57,10.30
2012,10,15,01,58,10.20
2012,10,15,01,59,10.20
2012,10,15,02,00,10.20
2012,10,15,02,01,10.20
2012,10,15,02,02,10.20
2012,10,15,02,03,10.10
2012,10,15,02,04,10.10
2012,10,15,02,05,10.10
2012,10,15,02,06,10.10
2012,10,15,02,07,10.10
2012,10,15,02,08,10.00
2012,10,15,02,09,10.00
2012,10,15,02,10,10.00
2012,10,15,02,11,10.00
2012,10,15,02,12,10.00
2012,10,15,02,13,10.00
2012,10,15,02,14,9.90
2012,10,15,02,15,9.90
2012,10,15,02,16,9.90
2012,10,15,02,17,9.90
2012,10,15,02,18,9.90
2012,10,15,02,19,9.90
2012,10,15,02,20,9.90
2012,10,15,02,21,9.90
2012,10,15,02,22,9.80
2012,10,15,02,23,9.80
2012,10,15,02,24,9.80
2012,10,15,02,25,9.80
2012,10,15,02,26,9.80
2012,10,15,02,27,9.80
2012,10,15,02,28,9.80
2012,10,15,02,29,9.80
2012,10,15,02,30,9.70
2012,10,15,02,31,9.70
2012,10,15,02,32,9.70
2012,10,15,02,33,9.70
2012,10,15,02,34,9.60
2012,10,15,02,35,9.60
2012,10,15,02,36,9.60
2012,10,15,02,37,9.60
2012,10,15,02,38,9.50
2012,10,15,02,39,9.50
2012,10,15,02,40,9.40
2012,10,15,02,41,9.40
2012,10,15,02,42,9.40
2012,10,15,02,43,9.30
2012,10,15,02,44,9.30
2012,10,15,02,45,9.30
2012,10,15,02,46,9.30
2012,10,15,02,47,9.30
2012,10,15,02,48,9.30
2012,10,15,02,49,9.30
2012,10,15,02,50,9.20
2012,10,15,02,51,9.20
2012,10,15,02,52,9.20
2012,10,15,02,53,9.20
2012,10,15,02,54,9.20
2012,10,15,02,55,9.20
2012,10,15,02,56,9.20
2012,10,15,02,57,9.20
2012,10,15,02,58,9.20
2012,10,15,02,59,9.10
2012,10,15,03,00,9.10
2012,10,15,03,01,9.10
2012,10,15,03,02,9.10
2012,10,15,03,03,9.10
2012,10,15,03,04,9.10
2012,10,15,03,05,9.10
2012,10,15,03,06,9.10
2012,10,15,03,07,9.10
2012,10,15,03,08,9.10
2012,10,15,03,09,9.10
2012,10,15,03,10,9.10
2012,10,15,03,11,9.10
2012,10,15,03,12,9.10
2012,10,15,03,13,9.00
2012,10,15,03,14,9.00
2012,10,15,03,15,9.00
2012,10,15,03,16,9.00
2012,10,15,03,17,9.00
2012,10,15,03,18,9.00
2012,10,15,03,19,9.00
2012,10,15,03,20,8.90
2012,10,15,03,21,8.90
2012,10,15,03,22,8.90
2012,10,15,03,23,8.90
2012,10,15,03,24,8.90
2012,10,15,03,25,8.90
2012,10,15,03,26,8.90
2012,10,15,03,27,8.80
2012,10,15,03,28,8.80
2012,10,15,03,29,8.80
2012,10,15,03,30,8.80
2012,10,15,03,31,8.80
2012,10,15,03,32,8.80
2012,10,15,03,33,8.80
2012,10,15,03,34,8.70
2012,10,15,03,35,8.70
2012,10,15,03,36,8.70
2012,10,15,03,37,8.70
2012,10,15,03,38,8.70
2012,10,15,03,39,8.70
2012,10,15,03,40,8.70
2012,10,15,03,41,8.70
2012,10,15,03,42,8.70
2012,10,15,03,43,8.70
2012,10,15,03,44,8.60
2012,10,15,03,45,8.60
2012,10,15,03,46,8.60
2012,10,15,03,47,8.60
2012,10,15,03,48,8.60
2012,10,15,03,49,8.50
2012,10,15,03,50,8.50
2012,10,15,03,51,8.50
2012,10,15,03,52,8.50
2012,10,15,03,53,8.50
2012,10,15,03,54,8.60
2012,10,15,03,55,8.60
2012,10,15,03,56,8.60
2012,10,15,03,57,8.60
2012,10,15,03,58,8.60
2012,10,15,03,59,8.60
2012,10,15,04,00,8.50
2012,10,15,04,01,8.50
2012,10,15,04,02,8.50
2012,10,15,04,03,8.50
2012,10,15,04,04,8.50
2012,10,15,04,05,8.50
2012,10,15,04,06,8.40
2012,10,15,04,07,8.40
2012,10,15,04,08,8.40
2012,10,15,04,09,8.30
2012,10,15,04,10,8.30
2012,10,15,04,11,8.30
2012,10,15,04,12,8.30
2012,10,15,04,13,8.30
2012,10,15,04,14,8.30
2012,10,15,04,15,8.30
2012,10,15,04,16,8.30
2012,10,15,04,17,8.30
2012,10,15,04,18,8.30
2012,10,15,04,19,8.30
2012,10,15,04,20,8.30
2012,10,15,04,21,8.30
2012,10,15,04,22,8.40
2012,10,15,04,23,8.40
2012,10,15,04,24,8.40
2012,10,15,04,25,8.40
2012,10,15,04,26,8.40
2012,10,15,04,27,8.40
2012,10,15,04,28,8.40
2012,10,15,04,29,8.40
2012,10,15,04,30,8.30
2012,10,15,04,31,8.30
2012,10,15,04,32,8.30
2012,10,15,04,33,8.30
2012,10,15,04,34,8.30
2012,10,15,04,35,8.30
2012,10,15,04,36,8.30
2012,10,15,04,37,8.20
2012,10,15,04,38,8.20
2012,10,15,04,39,8.20
2012,10,15,04,40,8.10
2012,10,15,04,41,8.10
2012,10,15,04,42,8.10
2012,10,15,04,43,8.00
2012,10,15,04,44,7.90
2012,10,15,04,45,7.90
2012,10,15,04,46,7.90
2012,10,15,04,47,7.80
2012,10,15,04,48,7.80
2012,10,15,04,49,7.80
2012,10,15,04,50,7.90
2012,10,15,04,51,7.90
2012,10,15,04,52,7.90
2012,10,15,04,53,7.90
2012,10,15,04,54,7.90
2012,10,15,04,55,7.90
2012,10,15,04,56,7.90
2012,10,15,04,57,7.90
2012,10,15,04,58,8.00
2012,10,15,04,59,8.10
2012,10,15,05,00,8.10
2012,10,15,05,01,8.20
2012,10,15,05,02,8.20
2012,10,15,05,03,8.30
2012,10,15,05,04,8.30
2012,10,15,05,05,8.30
2012,10,15,05,06,8.30
2012,10,15,05,07,8.30
2012,10,15,05,08,8.30
2012,10,15,05,09,8.30
2012,10,15,05,10,8.30
2012,10,15,05,11,8.30
2012,10,15,05,12,8.20
2012,10,15,05,13,8.20
2012,10,15,05,14,8.20
2012,10,15,05,15,8.20
2012,10,15,05,16,8.20
2012,10,15,05,17,8.20
2012,10,15,05,18,8.20
2012,10,15,05,19,8.20
2012,10,15,05,20,8.10
2012,10,15,05,21,8.10
2012,10,15,05,22,8.10
2012,10,15,05,23,8.10
2012,10,15,05,24,8.00
2012,10,15,05,25,8.00
2012,10,15,05,26,7.90
2012,10,15,05,27,7.90
2012,10,15,05,28,7.80
2012,10,15,05,29,7.80
2012,10,15,05,30,7.70
2012,10,15,05,31,7.60
2012,10,15,05,32,7.60
2012,10,15,05,33,7.50
2012,10,15,05,34,7.50
2012,10,15,05,35,7.40
2012,10,15,05,36,7.40
2012,10,15,05,37,7.30
2012,10,15,05,38,7.30
2012,10,15,05,39,7.20
2012,10,15,05,40,7.20
2012,10,15,05,41,7.20
2012,10,15,05,42,7.20
2012,10,15,05,43,7.20
2012,10,15,05,44,7.20
2012,10,15,05,45,7.20
2012,10,15,05,46,7.20
2012,10,15,05,47,7.10
2012,10,15,05,48,7.10
2012,10,15,05,49,7.10
2012,10,15,05,50,7.10
2012,10,15,05,51,7.10
2012,10,15,05,52,7.10
2012,10,15,05,53,7.00
2012,10,15,05,54,7.00
2012,10,15,05,55,7.00
2012,10,15,05,56,6.90
2012,10,15,05,57,6.90
2012,10,15,05,58,6.90
2012,10,15,05,59,6.90
2012,10,15,06,00,6.90
2012,10,15,06,01,6.90
2012,10,15,06,02,6.80
2012,10,15,06,03,6.80
2012,10,15,06,04,6.80
2012,10,15,06,05,6.80
2012,10,15,06,06,6.80
2012,10,15,06,07,6.80
2012,10,15,06,08,6.80
2012,10,15,06,09,6.80
2012,10,15,06,10,6.80
2012,10,15,06,11,6.80
2012,10,15,06,12,6.80
2012,10,15,06,13,6.80
2012,10,15,06,14,6.80
2012,10,15,06,15,6.70
2012,10,15,06,16,6.70
2012,10,15,06,17,6.70
2012,10,15,06,18,6.70
2012,10,15,06,19,6.70
2012,10,15,06,20,6.70
2012,10,15,06,21,6.70
2012,10,15,06,22,6.70
2012,10,15,06,23,6.70
2012,10,15,06,24,6.60
2012,10,15,06,25,6.60
2012,10,15,06,26,6.60
2012,10,15,06,27,6.60
2012,10,15,06,28,6.60
2012,10,15,06,29,6.60
2012,10,15,06,30,6.70
2012,10,15,06,31,6.70
2012,10,15,06,32,6.70
2012,10,15,06,33,6.80
2012,10,15,06,34,6.80
2012,10,15,06,35,6.80
2012,10,15,06,36,6.80
2012,10,15,06,37,6.80
2012,10,15,06,38,6.80
2012,10,15,06,39,6.80
2012,10,15,06,40,6.80
2012,10,15,06,41,6.80
2012,10,15,06,42,6.70
2012,10,15,06,43,6.70
2012,10,15,06,44,6.70
2012,10,15,06,45,6.70
2012,10,15,06,46,6.70
2012,10,15,06,47,6.70
2012,10,15,06,48,6.70
2012,10,15,06,49,6.60
2012,10,15,06,50,6.60
2012,10,15,06,51,6.60
2012,10,15,06,52,6.60
2012,10,15,06,53,6.60
2012,10,15,06,54,6.60
2012,10,15,06,55,6.60
2012,10,15,06,56,6.50
2012,10,15,06,57,6.50
2012,10,15,06,58,6.50
2012,10,15,06,59,6.50
2012,10,15,07,00,6.50
2012,10,15,07,01,6.50
2012,10,15,07,02,6.50
2012,10,15,07,03,6.50
2012,10,15,07,04,6.50
2012,10,15,07,05,6.40
2012,10,15,07,06,6.40
2012,10,15,07,07,6.40
2012,10,15,07,08,6.40
2012,10,15,07,09,6.40
2012,10,15,07,10,6.40
2012,10,15,07,11,6.50
2012,10,15,07,12,6.50
2012,10,15,07,13,6.50
2012,10,15,07,14,6.50
2012,10,15,07,15,6.50
2012,10,15,07,16,6.50
2012,10,15,07,17,6.50
2012,10,15,07,18,6.50
2012,10,15,07,19,6.50
2012,10,15,07,20,6.50
2012,10,15,07,21,6.50
2012,10,15,07,22,6.50
2012,10,15,07,23,6.50
2012,10,15,07,24,6.40
2012,10,15,07,25,6.40
2012,10,15,07,26,6.40
2012,10,15,07,27,6.50
2012,10,15,07,28,6.50
2012,10,15,07,29,6.50
2012,10,15,07,30,6.60
2012,10,15,07,31,6.60
2012,10,15,07,32,6.60
2012,10,15,07,33,6.60
2012,10,15,07,34,6.60
2012,10,15,07,35,6.60
2012,10,15,07,36,6.60
2012,10,15,07,37,6.70
2012,10,15,07,38,6.70
2012,10,15,07,39,6.70
2012,10,15,07,40,6.70
2012,10,15,07,41,6.70
2012,10,15,07,42,6.70
2012,10,15,07,43,6.70
2012,10,15,07,44,6.80
2012,10,15,07,45,6.80
2012,10,15,07,46,6.80
2012,10,15,07,47,6.80
2012,10,15,07,48,6.80
2012,10,15,07,49,6.80
2012,10,15,07,50,6.80
2012,10,15,07,51,6.80
2012,10,15,07,52,6.80
2012,10,15,07,53,6.80
2012,10,15,07,54,6.80
2012,10,15,07,55,6.80
2012,10,15,07,56,6.80
2012,10,15,07,57,6.80
2012,10,15,07,58,6.80
2012,10,15,07,59,6.80
2012,10,15,08,00,6.80
2012,10,15,08,01,6.80
2012,10,15,08,02,6.80
2012,10,15,08,03,6.80
2012,10,15,08,04,6.80
2012,10,15,08,05,6.80
2012,10,15,08,06,6.90
2012,10,15,08,07,6.90
2012,10,15,08,08,6.90
2012,10,15,08,09,6.90
2012,10,15,08,10,6.90
2012,10,15,08,11,6.90
2012,10,15,08,12,6.90
2012,10,15,08,13,7.00
2012,10,15,08,14,7.00
2012,10,15,08,15,7.00
2012,10,15,08,16,7.10
2012,10,15,08,17,7.10
2012,10,15,08,18,7.20
2012,10,15,08,19,7.20
2012,10,15,08,20,7.20
2012,10,15,08,21,7.20
2012,10,15,08,22,7.30
2012,10,15,08,23,7.30
2012,10,15,08,24,7.40
2012,10,15,08,25,7.40
2012,10,15,08,26,7.40
2012,10,15,08,27,7.40
2012,10,15,08,28,7.40
2012,10,15,08,29,7.40
2012,10,15,08,30,7.40
2012,10,15,08,31,7.40
2012,10,15,08,32,7.40
2012,10,15,08,33,7.40
2012,10,15,08,34,7.40
2012,10,15,08,35,7.50
2012,10,15,08,36,7.50
2012,10,15,08,37,7.50
2012,10,15,08,38,7.60
2012,10,15,08,39,7.60
2012,10,15,08,40,7.70
2012,10,15,08,41,7.70
2012,10,15,08,42,7.80
2012,10,15,08,43,7.90
2012,10,15,08,44,8.00
2012,10,15,08,45,8.00
2012,10,15,08,46,8.10
2012,10,15,08,47,8.20
2012,10,15,08,48,8.30
2012,10,15,08,49,8.40
2012,10,15,08,50,8.40
2012,10,15,08,51,8.50
2012,10,15,08,52,8.60
2012,10,15,08,53,8.60
2012,10,15,08,54,8.70
2012,10,15,08,55,8.70
2012,10,15,08,56,8.80
2012,10,15,08,57,8.80
2012,10,15,08,58,8.80
2012,10,15,08,59,8.80
2012,10,15,09,00,8.90
2012,10,15,09,01,8.90
2012,10,15,09,02,9.00
2012,10,15,09,03,9.10
2012,10,15,09,04,9.20
2012,10,15,09,05,9.20
2012,10,15,09,06,9.30
2012,10,15,09,07,9.30
2012,10,15,09,08,9.40
2012,10,15,09,09,9.50
2012,10,15,09,10,9.50
2012,10,15,09,11,9.60
2012,10,15,09,12,9.70
2012,10,15,09,13,9.70
2012,10,15,09,14,9.80
2012,10,15,09,15,9.80
2012,10,15,09,16,9.90
2012,10,15,09,17,10.00
2012,10,15,09,18,10.00
2012,10,15,09,19,10.10
2012,10,15,09,20,10.10
2012,10,15,09,21,10.20
2012,10,15,09,22,10.30
2012,10,15,09,23,10.30
2012,10,15,09,24,10.40
2012,10,15,09,25,10.40
2012,10,15,09,26,10.50
2012,10,15,09,27,10.50
2012,10,15,09,28,10.60
2012,10,15,09,29,10.70
2012,10,15,09,30,10.70
2012,10,15,09,31,10.80
2012,10,15,09,32,10.80
2012,10,15,09,33,10.80
2012,10,15,09,34,10.80
2012,10,15,09,35,10.80
2012,10,15,09,36,10.80
2012,10,15,09,37,10.80
2012,10,15,09,38,10.80
2012,10,15,09,39,10.80
2012,10,15,09,40,10.90
2012,10,15,09,41,10.90
2012,10,15,09,42,10.90
2012,10,15,09,43,10.90
2012,10,15,09,44,10.80
2012,10,15,09,45,10.80
2012,10,15,09,46,10.80
2012,10,15,09,47,10.80
2012,10,15,09,48,10.80
2012,10,15,09,49,10.80
2012,10,15,09,50,10.80
2012,10,15,09,51,10.80
2012,10,15,09,52,10.80
2012,10,15,09,53,10.80
2012,10,15,09,54,10.90
2012,10,15,09,55,10.90
2012,10,15,09,56,10.90
2012,10,15,09,57,10.90
2012,10,15,09,58,11.00
2012,10,15,09,59,11.00
2012,10,15,10,00,11.10
2012,10,15,10,01,11.10
2012,10,15,10,02,11.10
2012,10,15,10,03,11.10
2012,10,15,10,04,11.10
2012,10,15,10,05,11.10
2012,10,15,10,06,11.10
2012,10,15,10,07,11.20
2012,10,15,10,08,11.20
2012,10,15,10,09,11.30
2012,10,15,10,10,11.40
2012,10,15,10,11,11.40
2012,10,15,10,12,11.40
2012,10,15,10,13,11.40
2012,10,15,10,14,11.40
2012,10,15,10,15,11.40
2012,10,15,10,16,11.40
2012,10,15,10,17,11.50
2012,10,15,10,18,11.60
2012,10,15,10,19,11.70
2012,10,15,10,20,11.70
2012,10,15,10,21,11.80
2012,10,15,10,22,11.80
2012,10,15,10,23,11.80
2012,10,15,10,24,11.90
2012,10,15,10,25,11.90
2012,10,15,10,26,11.90
2012,10,15,10,27,12.00
2012,10,15,10,28,12.10
2012,10,15,10,29,12.20
2012,10,15,10,30,12.20
2012,10,15,10,31,12.30
2012,10,15,10,32,12.40
2012,10,15,10,33,12.50
2012,10,15,10,34,12.50
2012,10,15,10,35,12.60
2012,10,15,10,36,12.60
2012,10,15,10,37,12.60
2012,10,15,10,38,12.60
2012,10,15,10,39,12.60
2012,10,15,10,40,12.60
2012,10,15,10,41,12.60
2012,10,15,10,42,12.70
2012,10,15,10,43,12.70
2012,10,15,10,44,12.60
2012,10,15,10,45,12.60
2012,10,15,10,46,12.60
2012,10,15,10,47,12.60
2012,10,15,10,48,12.60
2012,10,15,10,49,12.60
2012,10,15,10,50,12.60
2012,10,15,10,51,12.60
2012,10,15,10,52,12.60
2012,10,15,10,53,12.70
2012,10,15,10,54,12.70
2012,10,15,10,55,12.60
2012,10,15,10,56,12.60
2012,10,15,10,57,12.50
2012,10,15,10,58,12.50
2012,10,15,10,59,12.40
2012,10,15,11,00,12.40
2012,10,15,11,01,12.30
2012,10,15,11,02,12.30
2012,10,15,11,03,12.30
2012,10,15,11,04,12.20
2012,10,15,11,05,12.10
2012,10,15,11,06,12.10
2012,10,15,11,07,11.90
2012,10,15,11,08,11.80
2012,10,15,11,09,11.70
2012,10,15,11,10,11.60
2012,10,15,11,11,11.50
2012,10,15,11,12,11.40
2012,10,15,11,13,11.40
2012,10,15,11,14,11.40
2012,10,15,11,15,11.30
2012,10,15,11,16,11.30
2012,10,15,11,17,11.20
2012,10,15,11,18,11.20
2012,10,15,11,19,11.20
2012,10,15,11,20,11.10
2012,10,15,11,21,11.10
2012,10,15,11,22,11.10
2012,10,15,11,23,11.10
2012,10,15,11,24,11.20
2012,10,15,11,25,11.20
2012,10,15,11,26,11.20
2012,10,15,11,27,11.20
2012,10,15,11,28,11.20
2012,10,15,11,29,11.20
2012,10,15,11,30,11.20
2012,10,15,11,31,11.30
2012,10,15,11,32,11.30
2012,10,15,11,33,11.30
2012,10,15,11,34,11.30
2012,10,15,11,35,11.30
2012,10,15,11,36,11.40
2012,10,15,11,37,11.40
2012,10,15,11,38,11.40
2012,10,15,11,39,11.40
2012,10,15,11,40,11.50
2012,10,15,11,41,11.60
2012,10,15,11,42,11.60
2012,10,15,11,43,11.60
2012,10,15,11,44,11.70
2012,10,15,11,45,11.70
2012,10,15,11,46,11.70
2012,10,15,11,47,11.70
2012,10,15,11,48,11.80
2012,10,15,11,49,11.80
2012,10,15,11,50,11.80
2012,10,15,11,51,11.80
2012,10,15,11,52,11.90
2012,10,15,11,53,12.00
2012,10,15,11,54,12.00
2012,10,15,11,55,12.10
2012,10,15,11,56,12.10
2012,10,15,11,57,12.10
2012,10,15,11,58,12.10
2012,10,15,11,59,12.10
2012,10,15,12,00,12.10
2012,10,15,12,01,12.10
2012,10,15,12,02,12.10
2012,10,15,12,03,12.10
2012,10,15,12,04,12.20
2012,10,15,12,05,12.20
2012,10,15,12,06,12.20
2012,10,15,12,07,12.20
2012,10,15,12,08,12.30
2012,10,15,12,09,12.30
2012,10,15,12,10,12.30
2012,10,15,12,11,12.30
2012,10,15,12,12,12.30
2012,10,15,12,13,12.30
2012,10,15,12,14,12.30
2012,10,15,12,15,12.30
2012,10,15,12,16,12.30
2012,10,15,12,17,12.30
2012,10,15,12,18,12.30
2012,10,15,12,19,12.30
2012,10,15,12,20,12.30
2012,10,15,12,21,12.30
2012,10,15,12,22,12.20
2012,10,15,12,23,12.20
2012,10,15,12,24,12.20
2012,10,15,12,25,12.20
2012,10,15,12,26,12.20
2012,10,15,12,27,12.20
2012,10,15,12,28,12.20
2012,10,15,12,29,12.20
2012,10,15,12,30,12.20
2012,10,15,12,31,12.20
2012,10,15,12,32,12.10
2012,10,15,12,33,12.10
2012,10,15,12,34,12.10
2012,10,15,12,35,12.10
2012,10,15,12,36,12.10
2012,10,15,12,37,12.10
2012,10,15,12,38,12.10
2012,10,15,12,39,12.00
2012,10,15,12,40,12.00
2012,10,15,12,41,12.00
2012,10,15,12,42,12.00
2012,10,15,12,43,12.00
2012,10,15,12,44,12.00
2012,10,15,12,45,12.00
2012,10,15,12,46,12.00
2012,10,15,12,47,11.90
2012,10,15,12,48,11.90
2012,10,15,12,49,11.90
2012,10,15,12,50,11.90
2012,10,15,12,51,11.90
2012,10,15,12,52,11.90
2012,10,15,12,53,11.90
2012,10,15,12,54,11.90
2012,10,15,12,55,11.90
2012,10,15,12,56,11.90
2012,10,15,12,57,11.90
2012,10,15,12,58,11.90
2012,10,15,12,59,11.90
2012,10,15,13,00,11.90
2012,10,15,13,01,11.90
2012,10,15,13,02,11.90
2012,10,15,13,03,11.90
2012,10,15,13,04,11.90
2012,10,15,13,05,11.90
2012,10,15,13,06,12.00
2012,10,15,13,07,12.00
2012,10,15,13,08,12.00
2012,10,15,13,09,12.00
2012,10,15,13,10,12.00
2012,10,15,13,11,12.00
2012,10,15,13,12,12.00
2012,10,15,13,13,12.00
2012,10,15,13,14,12.00
2012,10,15,13,15,12.00
2012,10,15,13,16,12.00
2012,10,15,13,17,12.00
2012,10,15,13,18,12.00
2012,10,15,13,19,12.00
2012,10,15,13,20,12.10
2012,10,15,13,21,12.10
2012,10,15,13,22,12.10
2012,10,15,13,23,12.10
2012,10,15,13,24,12.10
2012,10,15,13,25,12.10
2012,10,15,13,26,12.10
2012,10,15,13,27,12.10
2012,10,15,13,28,12.10
2012,10,15,13,29,12.10
2012,10,15,13,30,12.10
2012,10,15,13,31,12.10
2012,10,15,13,32,12.20
2012,10,15,13,33,12.10
2012,10,15,13,34,12.10
2012,10,15,13,35,12.10
2012,10,15,13,36,12.10
2012,10,15,13,37,12.10
2012,10,15,13,38,12.10
2012,10,15,13,39,12.10
2012,10,15,13,40,12.10
2012,10,15,13,41,12.10
2012,10,15,13,42,12.10
2012,10,15,13,43,12.00
2012,10,15,13,44,12.00
2012,10,15,13,45,12.00
2012,10,15,13,46,12.00
2012,10,15,13,47,12.00
2012,10,15,13,48,12.00
2012,10,15,13,49,12.00
2012,10,15,13,50,12.00
2012,10,15,13,51,12.00
2012,10,15,13,52,12.00
2012,10,15,13,53,12.00
2012,10,15,13,54,12.00
2012,10,15,13,55,12.00
2012,10,15,13,56,12.00
2012,10,15,13,57,12.00
2012,10,15,13,58,12.00
2012,10,15,13,59,12.00
2012,10,15,14,00,12.00
2012,10,15,14,01,12.00
2012,10,15,14,02,12.00
2012,10,15,14,03,12.00
2012,10,15,14,04,12.00
2012,10,15,14,05,11.90
2012,10,15,14,06,11.90
2012,10,15,14,07,11.90
2012,10,15,14,08,11.90
2012,10,15,14,09,11.90
2012,10,15,14,10,11.90
2012,10,15,14,11,11.90
2012,10,15,14,12,11.90
2012,10,15,14,13,11.90
2012,10,15,14,14,11.90
2012,10,15,14,15,11.90
2012,10,15,14,16,11.90
2012,10,15,14,17,11.90
2012,10,15,14,18,11.90
2012,10,15,14,19,11.90
2012,10,15,14,20,11.90
2012,10,15,14,21,11.90
2012,10,15,14,22,11.90
2012,10,15,14,23,11.80
2012,10,15,14,24,11.80
2012,10,15,14,25,11.80
2012,10,15,14,26,11.80
2012,10,15,14,27,11.80
2012,10,15,14,28,11.90
2012,10,15,14,29,11.90
2012,10,15,14,30,11.90
2012,10,15,14,31,11.90
2012,10,15,14,32,11.90
2012,10,15,14,33,11.90
2012,10,15,14,34,11.90
2012,10,15,14,35,11.90
2012,10,15,14,36,11.90
2012,10,15,14,37,11.90
2012,10,15,14,38,11.90
2012,10,15,14,39,11.90
2012,10,15,14,40,11.90
2012,10,15,14,41,11.90
2012,10,15,14,42,11.90
2012,10,15,14,43,11.90
2012,10,15,14,44,11.90
2012,10,15,14,45,11.80
2012,10,15,14,46,11.80
2012,10,15,14,47,11.80
2012,10,15,14,48,11.80
2012,10,15,14,49,11.80
2012,10,15,14,50,11.80
2012,10,15,14,51,11.80
2012,10,15,14,52,11.80
2012,10,15,14,53,11.80
2012,10,15,14,54,11.80
2012,10,15,14,55,11.70
2012,10,15,14,56,11.70
2012,10,15,14,57,11.70
2012,10,15,14,58,11.70
2012,10,15,14,59,11.70
2012,10,15,15,00,11.70
2012,10,15,15,01,11.70
2012,10,15,15,02,11.70
2012,10,15,15,03,11.60
2012,10,15,15,04,11.60
2012,10,15,15,05,11.60
2012,10,15,15,06,11.60
2012,10,15,15,07,11.60
2012,10,15,15,08,11.60
2012,10,15,15,09,11.60
2012,10,15,15,10,11.60
2012,10,15,15,11,11.60
2012,10,15,15,12,11.60
2012,10,15,15,13,11.60
2012,10,15,15,14,11.60
2012,10,15,15,15,11.60
2012,10,15,15,16,11.60
2012,10,15,15,17,11.60
2012,10,15,15,18,11.60
2012,10,15,15,19,11.60
2012,10,15,15,20,11.60
2012,10,15,15,21,11.60
2012,10,15,15,22,11.50
2012,10,15,15,23,11.50
2012,10,15,15,24,11.50
2012,10,15,15,25,11.50
2012,10,15,15,26,11.50
2012,10,15,15,27,11.60
2012,10,15,15,28,11.60
2012,10,15,15,29,11.50
2012,10,15,15,30,11.60
2012,10,15,15,31,11.60
2012,10,15,15,32,11.60
2012,10,15,15,33,11.60
2012,10,15,15,34,11.60
2012,10,15,15,35,11.60
2012,10,15,15,36,11.60
2012,10,15,15,37,11.50
2012,10,15,15,38,11.50
2012,10,15,15,39,11.50
2012,10,15,15,40,11.50
2012,10,15,15,41,11.50
2012,10,15,15,42,11.50
2012,10,15,15,43,11.50
2012,10,15,15,44,11.50
2012,10,15,15,45,11.40
2012,10,15,15,46,11.40
2012,10,15,15,47,11.40
2012,10,15,15,48,11.40
2012,10,15,15,49,11.40
2012,10,15,15,50,11.40
2012,10,15,15,51,11.40
2012,10,15,15,52,11.40
2012,10,15,15,53,11.40
2012,10,15,15,54,11.40
2012,10,15,15,55,11.40
2012,10,15,15,56,11.40
2012,10,15,15,57,11.30
2012,10,15,15,58,11.30
2012,10,15,15,59,11.30
2012,10,15,16,00,11.30
2012,10,15,16,01,11.30
2012,10,15,16,02,11.30
2012,10,15,16,03,11.30
2012,10,15,16,04,11.30
2012,10,15,16,05,11.30
2012,10,15,16,06,11.30
2012,10,15,16,07,11.30
2012,10,15,16,08,11.20
2012,10,15,16,09,11.20
2012,10,15,16,10,11.20
2012,10,15,16,11,11.20
2012,10,15,16,12,11.20
2012,10,15,16,13,11.20
2012,10,15,16,14,11.20
2012,10,15,16,15,11.20
2012,10,15,16,16,11.20
2012,10,15,16,17,11.20
2012,10,15,16,18,11.20
2012,10,15,16,19,11.20
2012,10,15,16,20,11.30
2012,10,15,16,21,11.30
2012,10,15,16,22,11.30
2012,10,15,16,23,11.30
2012,10,15,16,24,11.30
2012,10,15,16,25,11.30
2012,10,15,16,26,11.30
2012,10,15,16,27,11.30
2012,10,15,16,28,11.30
2012,10,15,16,29,11.30
2012,10,15,16,30,11.20
2012,10,15,16,31,11.20
2012,10,15,16,32,11.20
2012,10,15,16,33,11.20
2012,10,15,16,34,11.20
2012,10,15,16,35,11.20
2012,10,15,16,36,11.20
2012,10,15,16,37,11.20
2012,10,15,16,38,11.20
2012,10,15,16,39,11.20
2012,10,15,16,40,11.20
2012,10,15,16,41,11.30
2012,10,15,16,42,11.30
2012,10,15,16,43,11.30
2012,10,15,16,44,11.30
2012,10,15,16,45,11.30
2012,10,15,16,46,11.30
2012,10,15,16,47,11.30
2012,10,15,16,48,11.30
2012,10,15,16,49,11.30
2012,10,15,16,50,11.30
2012,10,15,16,51,11.30
2012,10,15,16,52,11.30
2012,10,15,16,53,11.30
2012,10,15,16,54,11.30
2012,10,15,16,55,11.30
2012,10,15,16,56,11.30
2012,10,15,16,57,11.20
2012,10,15,16,58,11.20
2012,10,15,16,59,11.20
2012,10,15,17,00,11.20
2012,10,15,17,01,11.20
2012,10,15,17,02,11.20
2012,10,15,17,03,11.20
2012,10,15,17,04,11.20
2012,10,15,17,05,11.20
2012,10,15,17,06,11.20
2012,10,15,17,07,11.20
2012,10,15,17,08,11.20
2012,10,15,17,09,11.20
2012,10,15,17,10,11.20
2012,10,15,17,11,11.20
2012,10,15,17,12,11.20
2012,10,15,17,13,11.20
2012,10,15,17,14,11.30
2012,10,15,17,15,11.30
2012,10,15,17,16,11.30
2012,10,15,17,17,11.30
2012,10,15,17,18,11.30
2012,10,15,17,19,11.30
2012,10,15,17,20,11.30
2012,10,15,17,21,11.30
2012,10,15,17,22,11.40
2012,10,15,17,23,11.40
2012,10,15,17,24,11.40
2012,10,15,17,25,11.40
2012,10,15,17,26,11.40
2012,10,15,17,27,11.40
2012,10,15,17,28,11.40
2012,10,15,17,29,11.40
2012,10,15,17,30,11.40
2012,10,15,17,31,11.30
2012,10,15,17,32,11.30
2012,10,15,17,33,11.30
2012,10,15,17,34,11.30
2012,10,15,17,35,11.20
2012,10,15,17,36,11.20
2012,10,15,17,37,11.20